| time (UTC) | temp F | wind direction | speed MPH | gust MPH | rain 1hr in | rain 24hr in | rain mn in | humidity % | barometer mb |
| 20260509194832 | 62 | 61 | 8.0 | 10.0 | 0.00 | 0.00 | 0.00 | 97 | 914.6 |
| 20260509194331 | 62 | 53 | 7.0 | 10.0 | 0.00 | 0.00 | 0.00 | 98 | 914.6 |
| 20260509194232 | 62 | 69 | 6.0 | 8.0 | 0.00 | 0.00 | 0.00 | 98 | 914.6 |
| 20260509193830 | 62 | 48 | 6.0 | 8.0 | 0.00 | 0.00 | 0.00 | 97 | 914.7 |
| 20260509193632 | 62 | 44 | 6.0 | 9.0 | 0.00 | 0.00 | 0.00 | 98 | 914.7 |
| 20260509193330 | 62 | 59 | 6.0 | 9.0 | 0.00 | 0.00 | 0.00 | 98 | 914.7 |
| 20260509193032 | 62 | 75 | 7.0 | 11.0 | 0.00 | 0.00 | 0.00 | 98 | 914.6 |
| 20260509192833 | 62 | 74 | 7.0 | 11.0 | 0.00 | 0.00 | 0.00 | 98 | 914.7 |
| 20260509192432 | 62 | 52 | 8.0 | 11.0 | 0.00 | 0.00 | 0.00 | 97 | 914.7 |
| 20260509192330 | 62 | 64 | 8.0 | 11.0 | 0.00 | 0.00 | 0.00 | 97 | 914.7 |
| 20260509191832 | 62 | 87 | 7.0 | 9.0 | 0.00 | 0.00 | 0.00 | 97 | 914.8 |
| 20260509191830 | 62 | 88 | 7.0 | 9.0 | 0.00 | 0.00 | 0.00 | 97 | 914.7 |
| 20260509191330 | 62 | 57 | 6.0 | 8.0 | 0.00 | 0.00 | 0.00 | 98 | 914.8 |
| 20260509191232 | 62 | 61 | 6.0 | 9.0 | 0.00 | 0.00 | 0.00 | 98 | 914.8 |
| 20260509190830 | 62 | 70 | 4.0 | 9.0 | 0.00 | 0.00 | 0.00 | 98 | 915.0 |
| 20260509190632 | 62 | 74 | 5.0 | 9.0 | 0.00 | 0.00 | 0.00 | 98 | 914.9 |
| 20260509190330 | 62 | 74 | 7.0 | 9.0 | 0.00 | 0.00 | 0.00 | 98 | 915.0 |
| 20260509190031 | 62 | 53 | 5.0 | 9.0 | 0.00 | 0.00 | 0.00 | 98 | 915.0 |
| 20260509185830 | 62 | 59 | 6.0 | 9.0 | 0.00 | 0.00 | 0.00 | 98 | 915.0 |
| 20260509185431 | 62 | 62 | 5.0 | 8.0 | 0.00 | 0.00 | 0.00 | 98 | 914.8 |
| 20260509185330 | 62 | 78 | 5.0 | 8.0 | 0.00 | 0.00 | 0.00 | 98 | 914.8 |
| 20260509184832 | 62 | 58 | 5.0 | 7.0 | 0.00 | 0.00 | 0.00 | 98 | 915.0 |
| 20260509184830 | 62 | 58 | 5.0 | 7.0 | 0.00 | 0.00 | 0.00 | 98 | 914.9 |
| 20260509184330 | 62 | 40 | 4.0 | 11.0 | 0.00 | 0.00 | 0.00 | 98 | 915.0 |
| 20260509184231 | 62 | 57 | 4.0 | 11.0 | 0.00 | 0.00 | 0.00 | 98 | 915.0 |
| 20260509183830 | 62 | 48 | 7.0 | 11.0 | 0.00 | 0.00 | 0.00 | 98 | 915.0 |
| 20260509183631 | 62 | 41 | 8.0 | 11.0 | 0.00 | 0.00 | 0.00 | 98 | 914.9 |
| 20260509183330 | 62 | 50 | 9.0 | 11.0 | 0.00 | 0.00 | 0.00 | 98 | 914.9 |
| 20260509183031 | 62 | 64 | 7.0 | 12.0 | 0.00 | 0.00 | 0.00 | 98 | 915.0 |
| 20260509182830 | 62 | 70 | 6.0 | 12.0 | 0.00 | 0.00 | 0.00 | 98 | 915.1 |
| 20260509182431 | 62 | 53 | 7.0 | 12.0 | 0.00 | 0.00 | 0.00 | 98 | 915.0 |
| 20260509182330 | 62 | 70 | 8.0 | 12.0 | 0.00 | 0.00 | 0.00 | 98 | 915.1 |
| 20260509181832 | 62 | 53 | 7.0 | 10.0 | 0.00 | 0.00 | 0.00 | 98 | 915.0 |
| 20260509181830 | 62 | 67 | 7.0 | 10.0 | 0.00 | 0.00 | 0.00 | 98 | 915.0 |
| 20260509181330 | 62 | 56 | 9.0 | 10.0 | 0.00 | 0.00 | 0.00 | 98 | 915.0 |
| 20260509181231 | 62 | 58 | 8.0 | 11.0 | 0.00 | 0.00 | 0.00 | 98 | 915.1 |
| 20260509180830 | 62 | 70 | 7.0 | 11.0 | 0.00 | 0.00 | 0.00 | 98 | 915.1 |
| 20260509180631 | 62 | 64 | 8.0 | 11.0 | 0.00 | 0.00 | 0.00 | 98 | 915.1 |
| 20260509180330 | 62 | 58 | 9.0 | 12.0 | 0.00 | 0.00 | 0.00 | 98 | 915.1 |
| 20260509180031 | 62 | 64 | 7.0 | 12.0 | 0.00 | 0.00 | 0.00 | 98 | 915.2 |
| 20260509175830 | 62 | 77 | 9.0 | 12.0 | 0.00 | 0.00 | 0.00 | 98 | 915.2 |
| 20260509175431 | 62 | 53 | 10.0 | 12.0 | 0.00 | 0.00 | 0.00 | 98 | 915.1 |
| 20260509175330 | 62 | 74 | 10.0 | 12.0 | 0.00 | 0.00 | 0.00 | 98 | 915.1 |
| 20260509174830 | 62 | 70 | 8.0 | 12.0 | 0.00 | 0.00 | 0.00 | 98 | 915.2 |
| 20260509174330 | 62 | 55 | 9.0 | 12.0 | 0.00 | 0.00 | 0.00 | 98 | 915.2 |
| 20260509174231 | 62 | 69 | 9.0 | 12.0 | 0.00 | 0.00 | 0.00 | 98 | 915.2 |
| 20260509173829 | 62 | 74 | 10.0 | 12.0 | 0.00 | 0.00 | 0.00 | 98 | 915.2 |
| 20260509173631 | 62 | 81 | 10.0 | 12.0 | 0.00 | 0.00 | 0.00 | 98 | 915.2 |
| 20260509173329 | 61 | 58 | 1.0 | 10.0 | 0.00 | 0.00 | 0.00 | 99 | 915.2 |
| 20260509170830 | 62 | 74 | 10.0 | 13.0 | 0.00 | 0.00 | 0.00 | 98 | 915.4 |
| 20260509170630 | 62 | 64 | 1.0 | 12.0 | 0.00 | 0.00 | 0.00 | 98 | 915.5 |
| 20260509170030 | 62 | 75 | 10.0 | 14.0 | 0.00 | 0.00 | 0.00 | 98 | 915.5 |
| 20260509165830 | 62 | 64 | 10.0 | 13.0 | 0.00 | 0.00 | 0.00 | 97 | 915.5 |
| 20260509165431 | 62 | 73 | 10.0 | 12.0 | 0.00 | 0.00 | 0.00 | 98 | 915.5 |
| 20260509165329 | 62 | 77 | 9.0 | 12.0 | 0.00 | 0.00 | 0.00 | 98 | 915.5 |
| 20260509164831 | 62 | 68 | 9.0 | 13.0 | 0.00 | 0.00 | 0.00 | 98 | 915.6 |
| 20260509164829 | 62 | 50 | 9.0 | 13.0 | 0.00 | 0.00 | 0.00 | 98 | 915.6 |
| 20260509164329 | 62 | 52 | 10.0 | 13.0 | 0.00 | 0.00 | 0.00 | 98 | 915.5 |
| 20260509164231 | 62 | 75 | 9.0 | 13.0 | 0.00 | 0.00 | 0.00 | 98 | 915.6 |
| 20260509163829 | 62 | 75 | 6.0 | 12.0 | 0.00 | 0.00 | 0.00 | 98 | 915.7 |
| 20260509163630 | 62 | 45 | 0.0 | 0.0 | 0.00 | 0.00 | 0.00 | 98 | 915.8 |
| 20260509163329 | 62 | 90 | 11.0 | 15.0 | 0.00 | 0.00 | 0.00 | 98 | 915.7 |
| 20260509163030 | 62 | 72 | 10.0 | 15.0 | 0.00 | 0.00 | 0.00 | 98 | 915.8 |
| 20260509162829 | 62 | 76 | 11.0 | 15.0 | 0.00 | 0.00 | 0.00 | 98 | 915.9 |
| 20260509162430 | 62 | 65 | 0.0 | 11.0 | 0.00 | 0.00 | 0.00 | 98 | 915.9 |
| 20260509162329 | 62 | 71 | 12.0 | 14.0 | 0.00 | 0.00 | 0.00 | 98 | 915.9 |
| 20260509161831 | 62 | 64 | 10.0 | 14.0 | 0.00 | 0.00 | 0.00 | 98 | 916.0 |
| 20260509161330 | 62 | 64 | 10.0 | 14.0 | 0.00 | 0.00 | 0.00 | 98 | 916.0 |
| 20260509161230 | 62 | 68 | 11.0 | 14.0 | 0.00 | 0.00 | 0.00 | 98 | 916.0 |
| 20260509160829 | 62 | 74 | 10.0 | 14.0 | 0.00 | 0.00 | 0.00 | 98 | 916.2 |
| 20260509160630 | 62 | 82 | 10.0 | 14.0 | 0.00 | 0.00 | 0.00 | 98 | 916.2 |
| 20260509160329 | 62 | 80 | 10.0 | 14.0 | 0.00 | 0.00 | 0.00 | 98 | 916.2 |
| 20260509160030 | 62 | 52 | 10.0 | 14.0 | 0.00 | 0.00 | 0.00 | 98 | 916.3 |
| 20260509155829 | 62 | 71 | 9.0 | 14.0 | 0.00 | 0.00 | 0.00 | 98 | 916.3 |
| 20260509155431 | 62 | 73 | 9.0 | 13.0 | 0.00 | 0.00 | 0.00 | 98 | 916.3 |
| 20260509155329 | 62 | 66 | 10.0 | 13.0 | 0.00 | 0.00 | 0.00 | 98 | 916.4 |
| 20260509154830 | 62 | 79 | 10.0 | 13.0 | 0.00 | 0.00 | 0.00 | 98 | 916.4 |
| 20260509154230 | 62 | 63 | 1.0 | 10.0 | 0.00 | 0.00 | 0.00 | 98 | 916.6 |
| 20260509153829 | 62 | 79 | 1.0 | 11.0 | 0.00 | 0.00 | 0.00 | 98 | 916.5 |
| 20260509153630 | 62 | 83 | 10.0 | 13.0 | 0.00 | 0.00 | 0.00 | 98 | 916.5 |
| 20260509153329 | 62 | 57 | 9.0 | 12.0 | 0.00 | 0.00 | 0.00 | 98 | 916.6 |
| 20260509152829 | 62 | 61 | 6.0 | 11.0 | 0.00 | 0.00 | 0.00 | 98 | 916.6 |
| 20260509152430 | 62 | 67 | 9.0 | 11.0 | 0.00 | 0.00 | 0.00 | 98 | 916.7 |
| 20260509151830 | 62 | 90 | 7.0 | 10.0 | 0.00 | 0.00 | 0.00 | 98 | 916.6 |
| 20260509151828 | 62 | 81 | 7.0 | 10.0 | 0.00 | 0.00 | 0.00 | 98 | 916.6 |
| 20260509151328 | 62 | 75 | 7.0 | 10.0 | 0.00 | 0.00 | 0.00 | 98 | 916.7 |
| 20260509151230 | 62 | 74 | 7.0 | 11.0 | 0.00 | 0.00 | 0.00 | 98 | 916.7 |
| 20260509150841 | 62 | 73 | 7.0 | 11.0 | 0.00 | 0.00 | 0.00 | 98 | 916.7 |
| 20260509150630 | 62 | 58 | 8.0 | 11.0 | 0.00 | 0.00 | 0.00 | 98 | 916.7 |
| 20260509150329 | 62 | 92 | 7.0 | 11.0 | 0.00 | 0.00 | 0.00 | 99 | 916.7 |
| 20260509144830 | 62 | 76 | 0.0 | 9.0 | 0.00 | 0.00 | 0.00 | 98 | 916.7 |
| 20260509144828 | 62 | 78 | 0.0 | 9.0 | 0.00 | 0.00 | 0.00 | 98 | 916.7 |
| 20260509144328 | 62 | 108 | 2.0 | 10.0 | 0.00 | 0.00 | 0.00 | 98 | 916.7 |
| 20260509143631 | 62 | 56 | 0.0 | 0.0 | 0.00 | 0.00 | 0.00 | 98 | 916.7 |
| 20260509143328 | 62 | 70 | 8.0 | 10.0 | 0.00 | 0.00 | 0.00 | 98 | 916.7 |
| 20260509143029 | 62 | 64 | 9.0 | 10.0 | 0.00 | 0.00 | 0.00 | 98 | 916.7 |
| 20260509142828 | 62 | 60 | 8.0 | 9.0 | 0.00 | 0.00 | 0.00 | 98 | 916.7 |
| 20260509142429 | 62 | 65 | 3.0 | 9.0 | 0.00 | 0.00 | 0.00 | 98 | 916.7 |
| 20260509141830 | 62 | 49 | 7.0 | 9.0 | 0.00 | 0.00 | 0.00 | 98 | 916.8 |
| 20260509141828 | 62 | 39 | 7.0 | 9.0 | 0.00 | 0.00 | 0.00 | 98 | 916.7 |
| 20260509141329 | 62 | 61 | 0.0 | 7.0 | 0.00 | 0.00 | 0.00 | 98 | 916.8 |
| 20260509141229 | 62 | 70 | 8.0 | 10.0 | 0.00 | 0.00 | 0.00 | 98 | 916.8 |
| 20260509140828 | 62 | 72 | 8.0 | 10.0 | 0.00 | 0.00 | 0.00 | 98 | 916.7 |
| 20260509140629 | 62 | 62 | 8.0 | 10.0 | 0.00 | 0.00 | 0.00 | 98 | 916.8 |
| 20260509140328 | 62 | 81 | 8.0 | 9.0 | 0.00 | 0.00 | 0.00 | 98 | 916.7 |
| 20260509140029 | 62 | 64 | 8.0 | 9.0 | 0.00 | 0.00 | 0.00 | 98 | 916.7 |
| 20260509135828 | 62 | 59 | 3.0 | 9.0 | 0.00 | 0.00 | 0.00 | 98 | 916.7 |
| 20260509135429 | 62 | 70 | 8.0 | 12.0 | 0.00 | 0.00 | 0.00 | 98 | 916.8 |
| 20260509135328 | 62 | 51 | 8.0 | 12.0 | 0.00 | 0.00 | 0.00 | 98 | 916.7 |
| 20260509134830 | 62 | 63 | 9.0 | 12.0 | 0.00 | 0.00 | 0.00 | 98 | 916.7 |
| 20260509134828 | 62 | 70 | 9.0 | 12.0 | 0.00 | 0.00 | 0.00 | 98 | 916.7 |
| 20260509134328 | 62 | 84 | 10.0 | 12.0 | 0.00 | 0.00 | 0.00 | 98 | 916.7 |
| 20260509134229 | 62 | 65 | 10.0 | 12.0 | 0.00 | 0.00 | 0.00 | 98 | 916.7 |
| 20260509133828 | 62 | 71 | 9.0 | 10.0 | 0.00 | 0.00 | 0.00 | 98 | 916.7 |
| 20260509133629 | 62 | 83 | 8.0 | 10.0 | 0.00 | 0.00 | 0.00 | 98 | 916.7 |
| 20260509133328 | 62 | 74 | 8.0 | 11.0 | 0.00 | 0.00 | 0.00 | 98 | 916.8 |
| 20260509133029 | 62 | 61 | 8.0 | 10.0 | 0.00 | 0.00 | 0.00 | 98 | 916.8 |
| 20260509132828 | 62 | 75 | 8.0 | 10.0 | 0.00 | 0.00 | 0.00 | 98 | 916.7 |
| 20260509132429 | 62 | 72 | 8.0 | 10.0 | 0.00 | 0.00 | 0.00 | 98 | 916.7 |
| 20260509132328 | 62 | 51 | 4.0 | 10.0 | 0.00 | 0.00 | 0.00 | 98 | 916.7 |
| 20260509131829 | 62 | 78 | 7.0 | 10.0 | 0.00 | 0.00 | 0.00 | 98 | 916.7 |
| 20260509131827 | 62 | 69 | 7.0 | 10.0 | 0.00 | 0.00 | 0.00 | 98 | 916.7 |
| 20260509131327 | 62 | 83 | 7.0 | 10.0 | 0.00 | 0.00 | 0.00 | 98 | 916.6 |
| 20260509131229 | 62 | 74 | 2.0 | 10.0 | 0.00 | 0.00 | 0.00 | 98 | 916.6 |
| 20260509130828 | 62 | 52 | 7.0 | 10.0 | 0.00 | 0.00 | 0.00 | 98 | 916.5 |
| 20260509130629 | 62 | 59 | 4.0 | 8.0 | 0.00 | 0.00 | 0.00 | 98 | 916.5 |
| 20260509130327 | 62 | 59 | 8.0 | 10.0 | 0.00 | 0.00 | 0.00 | 98 | 916.5 |
| 20260509130029 | 62 | 61 | 7.0 | 9.0 | 0.00 | 0.00 | 0.00 | 98 | 916.4 |
| 20260509125827 | 62 | 67 | 2.0 | 7.0 | 0.00 | 0.00 | 0.00 | 98 | 916.4 |
| 20260509125429 | 62 | 70 | 1.0 | 8.0 | 0.00 | 0.00 | 0.00 | 98 | 916.3 |
| 20260509125327 | 62 | 67 | 6.0 | 8.0 | 0.00 | 0.00 | 0.00 | 98 | 916.3 |
| 20260509124829 | 62 | 89 | 7.0 | 9.0 | 0.00 | 0.00 | 0.00 | 98 | 916.2 |
| 20260509124827 | 62 | 77 | 7.0 | 9.0 | 0.00 | 0.00 | 0.00 | 98 | 916.3 |
| 20260509124328 | 62 | 74 | 3.0 | 9.0 | 0.00 | 0.00 | 0.00 | 98 | 916.2 |
| 20260509123827 | 62 | 72 | 7.0 | 9.0 | 0.00 | 0.00 | 0.00 | 98 | 916.2 |
| 20260509123628 | 62 | 68 | 7.0 | 9.0 | 0.00 | 0.00 | 0.00 | 98 | 916.1 |
| 20260509123327 | 62 | 53 | 6.0 | 8.0 | 0.00 | 0.00 | 0.00 | 98 | 916.2 |
| 20260509123029 | 62 | 55 | 5.0 | 8.0 | 0.00 | 0.00 | 0.00 | 99 | 916.1 |
| 20260509120327 | 62 | 59 | 8.0 | 10.0 | 0.00 | 0.00 | 0.00 | 98 | 915.6 |
| 20260509120028 | 62 | 56 | 0.0 | 9.0 | 0.00 | 0.00 | 0.00 | 98 | 915.5 |
| 20260509115827 | 62 | 72 | 8.0 | 10.0 | 0.00 | 0.00 | 0.00 | 98 | 915.6 |
| 20260509115428 | 62 | 62 | 0.0 | 9.0 | 0.00 | 0.00 | 0.00 | 98 | 915.5 |
| 20260509114830 | 62 | 73 | 8.0 | 11.0 | 0.00 | 0.00 | 0.00 | 98 | 915.5 |
| 20260509114828 | 62 | 61 | 8.0 | 11.0 | 0.00 | 0.00 | 0.00 | 98 | 915.5 |
| 20260509114327 | 62 | 49 | 8.0 | 11.0 | 0.00 | 0.00 | 0.00 | 98 | 915.6 |
| 20260509114228 | 62 | 72 | 8.0 | 11.0 | 0.00 | 0.00 | 0.00 | 98 | 915.6 |
| 20260509113827 | 62 | 66 | 5.0 | 10.0 | 0.00 | 0.00 | 0.00 | 98 | 915.6 |
| 20260509113327 | 62 | 58 | 6.0 | 8.0 | 0.00 | 0.00 | 0.00 | 98 | 915.5 |
| 20260509113028 | 62 | 53 | 6.0 | 8.0 | 0.00 | 0.00 | 0.00 | 98 | 915.5 |
| 20260509112827 | 61 | 45 | 0.0 | 7.0 | 0.00 | 0.00 | 0.00 | 98 | 915.5 |
| 20260509112428 | 62 | 68 | 3.0 | 8.0 | 0.00 | 0.00 | 0.00 | 98 | 915.4 |
| 20260509112327 | 62 | 72 | 0.0 | 8.0 | 0.00 | 0.00 | 0.00 | 97 | 915.4 |
| 20260509111828 | 62 | 59 | 8.0 | 10.0 | 0.00 | 0.00 | 0.00 | 98 | 915.3 |
| 20260509111826 | 62 | 51 | 8.0 | 10.0 | 0.00 | 0.00 | 0.00 | 98 | 915.4 |
| 20260509111327 | 62 | 66 | 8.0 | 10.0 | 0.00 | 0.00 | 0.00 | 98 | 915.3 |
| 20260509111228 | 62 | 64 | 8.0 | 10.0 | 0.00 | 0.00 | 0.00 | 98 | 915.4 |
| 20260509110826 | 62 | 45 | 6.0 | 7.0 | 0.00 | 0.00 | 0.00 | 97 | 915.5 |
| 20260509110628 | 62 | 64 | 5.0 | 6.0 | 0.00 | 0.00 | 0.00 | 97 | 915.5 |
| 20260509110326 | 62 | 67 | 4.0 | 5.0 | 0.00 | 0.00 | 0.00 | 98 | 915.6 |
| 20260509110028 | 62 | 54 | 4.0 | 6.0 | 0.00 | 0.00 | 0.00 | 98 | 915.5 |
| 20260509105428 | 62 | 81 | 4.0 | 6.0 | 0.00 | 0.00 | 0.00 | 98 | 915.5 |
| 20260509104828 | 62 | 76 | 4.0 | 6.0 | 0.00 | 0.00 | 0.00 | 97 | 915.5 |
| 20260509104228 | 62 | 77 | 4.0 | 6.0 | 0.00 | 0.00 | 0.00 | 97 | 915.5 |
| 20260509103628 | 62 | 51 | 4.0 | 5.0 | 0.00 | 0.00 | 0.00 | 97 | 915.5 |
| 20260509103028 | 62 | 64 | 3.0 | 4.0 | 0.00 | 0.00 | 0.00 | 98 | 915.5 |
| 20260509102428 | 62 | 81 | 3.0 | 4.0 | 0.00 | 0.00 | 0.00 | 98 | 915.4 |
| 20260509102327 | 62 | 57 | 3.0 | 4.0 | 0.00 | 0.00 | 0.00 | 98 | 915.4 |
| 20260509101828 | 62 | 64 | 1.0 | 4.0 | 0.00 | 0.00 | 0.00 | 98 | 915.3 |
| 20260509101826 | 62 | 55 | 1.0 | 4.0 | 0.00 | 0.00 | 0.00 | 98 | 915.4 |
| 20260509101326 | 62 | 64 | 2.0 | 5.0 | 0.00 | 0.00 | 0.00 | 98 | 915.3 |
| 20260509101227 | 61 | 50 | 0.0 | 3.0 | 0.00 | 0.00 | 0.00 | 97 | 915.3 |
| 20260509100826 | 62 | 51 | 5.0 | 6.0 | 0.00 | 0.00 | 0.00 | 98 | 915.3 |
| 20260509100627 | 62 | 46 | 5.0 | 6.0 | 0.00 | 0.00 | 0.00 | 98 | 915.3 |
| 20260509100326 | 62 | 58 | 5.0 | 6.0 | 0.00 | 0.00 | 0.00 | 98 | 915.3 |
| 20260509100027 | 62 | 64 | 3.0 | 7.0 | 0.00 | 0.00 | 0.00 | 98 | 915.3 |
| 20260509095826 | 62 | 55 | 5.0 | 7.0 | 0.00 | 0.00 | 0.00 | 98 | 915.2 |
| 20260509095326 | 62 | 60 | 5.0 | 7.0 | 0.00 | 0.00 | 0.00 | 98 | 915.2 |
| 20260509094828 | 62 | 71 | 6.0 | 7.0 | 0.00 | 0.00 | 0.00 | 98 | 915.2 |
| 20260509094826 | 62 | 64 | 6.0 | 7.0 | 0.00 | 0.00 | 0.00 | 98 | 915.2 |
| 20260509094326 | 62 | 64 | 3.0 | 7.0 | 0.00 | 0.00 | 0.00 | 98 | 915.2 |
| 20260509094228 | 62 | 68 | 4.0 | 7.0 | 0.00 | 0.00 | 0.00 | 98 | 915.2 |
| 20260509093826 | 62 | 67 | 4.0 | 8.0 | 0.00 | 0.00 | 0.00 | 97 | 915.2 |
| 20260509093627 | 62 | 63 | 4.0 | 8.0 | 0.00 | 0.00 | 0.00 | 98 | 915.2 |
| 20260509093327 | 62 | 74 | 6.0 | 8.0 | 0.00 | 0.00 | 0.00 | 98 | 915.1 |
| 20260509093027 | 62 | 81 | 3.0 | 7.0 | 0.00 | 0.00 | 0.00 | 98 | 915.1 |
| 20260509092826 | 61 | 69 | 1.0 | 7.0 | 0.00 | 0.00 | 0.00 | 98 | 915.1 |
| 20260509092427 | 61 | 53 | 0.0 | 5.0 | 0.00 | 0.00 | 0.00 | 98 | 915.1 |
| 20260509092327 | 61 | 63 | 0.0 | 4.0 | 0.00 | 0.00 | 0.00 | 98 | 915.1 |
| 20260509091827 | 61 | 61 | 1.0 | 7.0 | 0.00 | 0.00 | 0.00 | 98 | 915.0 |
| 20260509091326 | 61 | 69 | 5.0 | 10.0 | 0.00 | 0.00 | 0.00 | 98 | 915.0 |
| 20260509091227 | 61 | 64 | 6.0 | 10.0 | 0.00 | 0.00 | 0.00 | 97 | 915.0 |
| 20260509090827 | 61 | 70 | 6.0 | 10.0 | 0.00 | 0.00 | 0.00 | 97 | 915.0 |
| 20260509090627 | 62 | 82 | 7.0 | 10.0 | 0.00 | 0.00 | 0.00 | 98 | 915.0 |
| 20260509090326 | 62 | 63 | 5.0 | 8.0 | 0.00 | 0.00 | 0.00 | 98 | 915.0 |
| 20260509090027 | 62 | 77 | 0.0 | 6.0 | 0.00 | 0.00 | 0.00 | 98 | 915.0 |
| 20260509085826 | 62 | 65 | 5.0 | 8.0 | 0.00 | 0.00 | 0.00 | 98 | 915.0 |
| 20260509085427 | 62 | 79 | 5.0 | 8.0 | 0.00 | 0.00 | 0.00 | 98 | 914.9 |
| 20260509085325 | 62 | 62 | 6.0 | 8.0 | 0.00 | 0.00 | 0.00 | 98 | 914.9 |
| 20260509084827 | 62 | 73 | 8.0 | 10.0 | 0.00 | 0.00 | 0.00 | 98 | 914.8 |
| 20260509084825 | 62 | 64 | 8.0 | 10.0 | 0.00 | 0.00 | 0.00 | 98 | 914.9 |
| 20260509084325 | 62 | 82 | 3.0 | 8.0 | 0.00 | 0.00 | 0.00 | 98 | 914.8 |
| 20260509084228 | 62 | 71 | 3.0 | 10.0 | 0.00 | 0.00 | 0.00 | 98 | 914.8 |
| 20260509083826 | 62 | 68 | 4.0 | 9.0 | 0.00 | 0.00 | 0.00 | 98 | 914.9 |
| 20260509083627 | 62 | 69 | 6.0 | 9.0 | 0.00 | 0.00 | 0.00 | 98 | 914.8 |
| 20260509083325 | 61 | 70 | 0.0 | 7.0 | 0.00 | 0.00 | 0.00 | 99 | 914.9 |
| 20260509080325 | 62 | 73 | 7.0 | 10.0 | 0.00 | 0.00 | 0.00 | 98 | 914.9 |
| 20260509080026 | 62 | 62 | 4.0 | 9.0 | 0.00 | 0.00 | 0.00 | 98 | 914.9 |
| 20260509075426 | 62 | 71 | 7.0 | 11.0 | 0.00 | 0.00 | 0.00 | 98 | 914.9 |
| 20260509075326 | 62 | 59 | 7.0 | 10.0 | 0.00 | 0.00 | 0.00 | 98 | 914.9 |
| 20260509074226 | 62 | 74 | 10.0 | 13.0 | 0.00 | 0.00 | 0.00 | 98 | 914.8 |
| 20260509073825 | 62 | 79 | 8.0 | 10.0 | 0.00 | 0.00 | 0.00 | 98 | 914.8 |
| 20260509073626 | 62 | 85 | 8.0 | 10.0 | 0.00 | 0.00 | 0.00 | 98 | 914.9 |
| 20260509073026 | 62 | 82 | 8.0 | 9.0 | 0.00 | 0.00 | 0.00 | 98 | 915.0 |
| 20260509072825 | 62 | 80 | 7.0 | 9.0 | 0.00 | 0.00 | 0.00 | 98 | 915.0 |
| 20260509072426 | 62 | 75 | 7.0 | 8.0 | 0.00 | 0.00 | 0.00 | 98 | 915.0 |
| 20260509072326 | 62 | 66 | 6.0 | 8.0 | 0.00 | 0.00 | 0.00 | 98 | 915.1 |
| 20260509071226 | 62 | 68 | 5.0 | 10.0 | 0.00 | 0.00 | 0.00 | 98 | 915.1 |
| 20260509070626 | 62 | 89 | 9.0 | 10.0 | 0.00 | 0.00 | 0.00 | 98 | 915.1 |
| 20260509070324 | 62 | 68 | 2.0 | 10.0 | 0.00 | 0.00 | 0.00 | 98 | 915.1 |
| 20260509070026 | 62 | 98 | 4.0 | 10.0 | 0.00 | 0.00 | 0.00 | 98 | 915.1 |
| 20260509065825 | 62 | 75 | 6.0 | 12.0 | 0.00 | 0.00 | 0.00 | 98 | 915.2 |
| 20260509065426 | 62 | 58 | 4.0 | 12.0 | 0.00 | 0.00 | 0.00 | 98 | 915.2 |
| 20260509063825 | 61 | 71 | 0.0 | 0.0 | 0.00 | 0.00 | 0.00 | 99 | 915.3 |
| 20260509063028 | 61 | 79 | 0.0 | 0.0 | 0.00 | 0.00 | 0.00 | 99 | 915.4 |
| 20260509061826 | 62 | 105 | 1.0 | 12.0 | 0.00 | 0.00 | 0.00 | 99 | 915.4 |
| 20260509061824 | 62 | 60 | 1.0 | 12.0 | 0.00 | 0.00 | 0.00 | 99 | 915.4 |
| 20260509060324 | 61 | 78 | 0.0 | 9.0 | 0.00 | 0.00 | 0.00 | 99 | 915.6 |
| 20260509054827 | 62 | 77 | 0.0 | 0.0 | 0.00 | 0.00 | 0.00 | 98 | 915.7 |
| 20260509054324 | 62 | 69 | 2.0 | 9.0 | 0.00 | 0.00 | 0.00 | 98 | 915.8 |
| 20260509054225 | 62 | 79 | 8.0 | 11.0 | 0.00 | 0.00 | 0.00 | 98 | 915.7 |
| 20260509053824 | 62 | 69 | 3.0 | 11.0 | 0.00 | 0.00 | 0.00 | 98 | 915.8 |
| 20260509053625 | 62 | 91 | 3.0 | 10.0 | 0.00 | 0.00 | 0.00 | 98 | 915.9 |
| 20260509053025 | 62 | 60 | 1.0 | 10.0 | 0.00 | 0.00 | 0.00 | 98 | 916.0 |
| 20260509051225 | 62 | 57 | 1.0 | 7.0 | 0.00 | 0.00 | 0.00 | 98 | 916.3 |
| 20260509050824 | 62 | 63 | 5.0 | 12.0 | 0.00 | 0.00 | 0.00 | 99 | 916.3 |
| 20260509044324 | 62 | 83 | 8.0 | 16.0 | 0.00 | 0.00 | 0.00 | 98 | 916.3 |
| 20260509044225 | 62 | 63 | 2.0 | 16.0 | 0.00 | 0.00 | 0.00 | 98 | 916.3 |
| 20260509043824 | 62 | 67 | 12.0 | 16.0 | 0.00 | 0.00 | 0.00 | 98 | 916.3 |
| 20260509043625 | 62 | 75 | 12.0 | 16.0 | 0.00 | 0.00 | 0.00 | 98 | 916.3 |
| 20260509043326 | 62 | 75 | 4.0 | 16.0 | 0.00 | 0.00 | 0.00 | 98 | 916.4 |
| 20260509042425 | 62 | 102 | 15.0 | 19.0 | 0.00 | 0.00 | 0.00 | 98 | 916.6 |
| 20260509042323 | 62 | 58 | 14.0 | 18.0 | 0.00 | 0.00 | 0.00 | 98 | 916.6 |
| 20260509041825 | 62 | 61 | 2.0 | 15.0 | 0.00 | 0.00 | 0.00 | 98 | 916.8 |
| 20260509041823 | 62 | 83 | 2.0 | 15.0 | 0.00 | 0.00 | 0.00 | 98 | 916.8 |
| 20260509041324 | 62 | 73 | 6.0 | 13.0 | 0.00 | 0.00 | 0.00 | 98 | 916.8 |
| 20260509041224 | 62 | 73 | 0.0 | 12.0 | 0.00 | 0.00 | 0.00 | 98 | 916.9 |
| 20260509040823 | 62 | 82 | 13.0 | 15.0 | 0.00 | 0.00 | 0.00 | 98 | 916.8 |
| 20260509040625 | 62 | 73 | 6.0 | 15.0 | 0.00 | 0.00 | 0.00 | 99 | 916.9 |
| 20260509033024 | 62 | 66 | 11.0 | 15.0 | 0.00 | 0.00 | 0.00 | 98 | 917.0 |
| 20260509032823 | 62 | 75 | 11.0 | 14.0 | 0.00 | 0.00 | 0.00 | 98 | 917.0 |
| 20260509032424 | 62 | 54 | 1.0 | 12.0 | 0.00 | 0.00 | 0.00 | 98 | 917.0 |
| 20260509032323 | 62 | 71 | 13.0 | 17.0 | 0.00 | 0.00 | 0.00 | 98 | 917.0 |
| 20260509031825 | 62 | 69 | 0.0 | 0.0 | 0.00 | 0.00 | 0.00 | 98 | 917.0 |
| 20260509031323 | 62 | 63 | 14.0 | 18.0 | 0.00 | 0.00 | 0.00 | 98 | 917.0 |
| 20260509031224 | 62 | 78 | 15.0 | 18.0 | 0.00 | 0.00 | 0.00 | 98 | 917.0 |
| 20260509030823 | 62 | 44 | 5.0 | 17.0 | 0.00 | 0.00 | 0.00 | 98 | 917.0 |
| 20260509030624 | 62 | 71 | 14.0 | 21.0 | 0.00 | 0.00 | 0.00 | 98 | 916.9 |
| 20260509030323 | 62 | 80 | 10.0 | 14.0 | 0.00 | 0.00 | 0.00 | 98 | 917.1 |
| 20260509030024 | 62 | 33 | 4.0 | 14.0 | 0.00 | 0.00 | 0.00 | 99 | 917.1 |
| 20260509025324 | 62 | 65 | 0.0 | 0.0 | 0.00 | 0.00 | 0.00 | 99 | 917.0 |
| 20260509024323 | 62 | 93 | 9.0 | 19.0 | 0.00 | 0.00 | 0.00 | 98 | 916.9 |
| 20260509024224 | 62 | 70 | 1.0 | 19.0 | 0.00 | 0.00 | 0.00 | 98 | 916.8 |
| 20260509023624 | 62 | 69 | 4.0 | 18.0 | 0.00 | 0.00 | 0.00 | 98 | 916.9 |
| 20260509023322 | 62 | 83 | 3.0 | 22.0 | 0.00 | 0.00 | 0.00 | 98 | 916.8 |
| 20260509022822 | 62 | 81 | 9.0 | 19.0 | 0.00 | 0.00 | 0.00 | 99 | 916.8 |
| 20260509021322 | 62 | 50 | 9.0 | 21.0 | 0.00 | 0.00 | 0.00 | 99 | 917.1 |
| 20260509021224 | 62 | 81 | 0.0 | 17.0 | 0.00 | 0.00 | 0.00 | 99 | 917.0 |
| 20260509012423 | 62 | 88 | 16.0 | 20.0 | 0.00 | 0.00 | 0.00 | 97 | 917.0 |
| 20260509012323 | 62 | 69 | 16.0 | 20.0 | 0.00 | 0.00 | 0.00 | 97 | 917.0 |
| 20260509011824 | 62 | 62 | 18.0 | 22.0 | 0.00 | 0.00 | 0.00 | 97 | 916.9 |
| 20260509011822 | 62 | 92 | 18.0 | 22.0 | 0.00 | 0.00 | 0.00 | 97 | 916.9 |
| 20260509011322 | 62 | 67 | 16.0 | 20.0 | 0.00 | 0.00 | 0.00 | 97 | 917.0 |
| 20260509011223 | 62 | 87 | 17.0 | 20.0 | 0.00 | 0.00 | 0.00 | 97 | 917.0 |
| 20260509010623 | 62 | 63 | 18.0 | 23.0 | 0.00 | 0.00 | 0.00 | 97 | 916.8 |
| 20260509010023 | 62 | 76 | 19.0 | 23.0 | 0.00 | 0.00 | 0.00 | 97 | 916.6 |
| 20260509005822 | 62 | 79 | 17.0 | 23.0 | 0.00 | 0.00 | 0.00 | 97 | 916.6 |
| 20260509005423 | 62 | 77 | 3.0 | 23.0 | 0.00 | 0.00 | 0.00 | 98 | 916.6 |
| 20260509005322 | 63 | 72 | 15.0 | 20.0 | 0.00 | 0.00 | 0.00 | 97 | 916.7 |
| 20260509004823 | 63 | 66 | 9.0 | 21.0 | 0.00 | 0.00 | 0.00 | 97 | 916.6 |
| 20260509004322 | 62 | 73 | 0.0 | 0.0 | 0.00 | 0.00 | 0.00 | 98 | 916.6 |
| 20260509004223 | 62 | 57 | 0.0 | 15.0 | 0.00 | 0.00 | 0.00 | 97 | 916.7 |
| 20260509003822 | 63 | 91 | 18.0 | 23.0 | 0.01 | 0.01 | 0.00 | 97 | 916.5 |
| 20260509003623 | 63 | 77 | 15.0 | 22.0 | 0.01 | 0.01 | 0.00 | 97 | 916.6 |
| 20260509003322 | 63 | 61 | 14.0 | 22.0 | 0.01 | 0.01 | 0.00 | 97 | 916.6 |
| 20260509003023 | 63 | 70 | 15.0 | 22.0 | 0.01 | 0.01 | 0.00 | 97 | 916.6 |
| 20260509002822 | 63 | 61 | 16.0 | 22.0 | 0.01 | 0.01 | 0.00 | 97 | 916.5 |
| 20260509002423 | 63 | 81 | 3.0 | 18.0 | 0.00 | 0.00 | 0.00 | 97 | 916.4 |
| 20260509001823 | 63 | 39 | 16.0 | 21.0 | 0.00 | 0.00 | 0.00 | 97 | 916.4 |
| 20260509001821 | 63 | 74 | 16.0 | 21.0 | 0.00 | 0.00 | 0.00 | 97 | 916.5 |
| 20260509001321 | 63 | 62 | 16.0 | 21.0 | 0.00 | 0.00 | 0.00 | 97 | 916.3 |
| 20260509001223 | 63 | 73 | 15.0 | 21.0 | 0.00 | 0.00 | 0.00 | 97 | 916.2 |
| 20260509000821 | 63 | 58 | 17.0 | 21.0 | 0.00 | 0.00 | 0.00 | 97 | 916.2 |
| 20260509000623 | 63 | 86 | 9.0 | 18.0 | 0.00 | 0.00 | 0.00 | 97 | 916.0 |
| 20260509000321 | 63 | 74 | 17.0 | 24.0 | 0.01 | 0.01 | 0.00 | 97 | 916.0 |
| 20260509000023 | 63 | 53 | 18.0 | 24.0 | 0.01 | 0.01 | 0.00 | 97 | 916.1 |
| 20260508235821 | 63 | 76 | 19.0 | 22.0 | 0.01 | 0.01 | 0.00 | 97 | 916.1 |
| 20260508235422 | 63 | 58 | 17.0 | 22.0 | 0.01 | 0.01 | 0.00 | 97 | 916.2 |
| 20260508235321 | 63 | 70 | 18.0 | 22.0 | 0.01 | 0.01 | 0.00 | 97 | 916.2 |
| 20260508234823 | 63 | 81 | 9.0 | 17.0 | 0.00 | 0.00 | 0.00 | 97 | 916.1 |
| 20260508234321 | 63 | 75 | 16.0 | 25.0 | 0.01 | 0.01 | 0.00 | 97 | 916.2 |
| 20260508234222 | 63 | 44 | 15.0 | 25.0 | 0.01 | 0.01 | 0.00 | 97 | 916.0 |
| 20260508233821 | 63 | 67 | 16.0 | 25.0 | 0.01 | 0.01 | 0.00 | 97 | 916.2 |
| 20260508233622 | 63 | 75 | 17.0 | 25.0 | 0.01 | 0.01 | 0.00 | 97 | 916.2 |
| 20260508233321 | 63 | 56 | 3.0 | 20.0 | 0.00 | 0.00 | 0.00 | 98 | 916.1 |
| 20260508233022 | 63 | 76 | 16.0 | 20.0 | 0.01 | 0.01 | 0.00 | 97 | 916.1 |
| 20260508232821 | 63 | 71 | 13.0 | 20.0 | 0.01 | 0.01 | 0.00 | 97 | 916.2 |
| 20260508232422 | 63 | 96 | 14.0 | 20.0 | 0.01 | 0.01 | 0.00 | 97 | 916.1 |
| 20260508232321 | 63 | 79 | 15.0 | 20.0 | 0.01 | 0.01 | 0.00 | 97 | 916.1 |
| 20260508231823 | 63 | 76 | 15.0 | 20.0 | 0.00 | 0.00 | 0.00 | 97 | 916.0 |
| 20260508231321 | 63 | 58 | 16.0 | 22.0 | 0.06 | 0.10 | 0.00 | 97 | 915.9 |
| 20260508231222 | 63 | 53 | 17.0 | 22.0 | 0.06 | 0.10 | 0.00 | 97 | 915.8 |
| 20260508230821 | 63 | 71 | 16.0 | 22.0 | 0.06 | 0.10 | 0.00 | 97 | 915.8 |
| 20260508230622 | 63 | 69 | 17.0 | 22.0 | 0.06 | 0.10 | 0.00 | 97 | 915.7 |
| 20260508230321 | 63 | 88 | 16.0 | 22.0 | 0.06 | 0.09 | 0.00 | 97 | 915.5 |
| 20260508230022 | 63 | 67 | 15.0 | 24.0 | 0.06 | 0.09 | 0.00 | 97 | 915.8 |
| 20260508225821 | 63 | 35 | 17.0 | 24.0 | 0.06 | 0.09 | 0.00 | 97 | 915.7 |
| 20260508225422 | 63 | 61 | 16.0 | 24.0 | 0.06 | 0.09 | 0.00 | 97 | 915.7 |
| 20260508225321 | 63 | 66 | 17.0 | 24.0 | 0.06 | 0.09 | 0.00 | 97 | 915.7 |
| 20260508224822 | 63 | 77 | 16.0 | 24.0 | 0.06 | 0.09 | 0.00 | 97 | 915.5 |
| 20260508224321 | 63 | 62 | 17.0 | 27.0 | 0.06 | 0.07 | 0.00 | 97 | 915.6 |
| 20260508224222 | 63 | 85 | 18.0 | 27.0 | 0.06 | 0.07 | 0.00 | 97 | 915.4 |
| 20260508223820 | 63 | 79 | 17.0 | 27.0 | 0.06 | 0.07 | 0.00 | 97 | 915.4 |
| 20260508223622 | 63 | 84 | 21.0 | 27.0 | 0.06 | 0.07 | 0.00 | 97 | 915.2 |
| 20260508223322 | 63 | 67 | 20.0 | 27.0 | 0.05 | 0.06 | 0.00 | 97 | 915.3 |
| 20260508223022 | 63 | 62 | 18.0 | 27.0 | 0.03 | 0.05 | 0.00 | 97 | 915.2 |
| 20260508222820 | 63 | 52 | 17.0 | 27.0 | 0.03 | 0.05 | 0.00 | 97 | 915.2 |
| 20260508222422 | 63 | 85 | 19.0 | 28.0 | 0.05 | 0.05 | 0.00 | 97 | 915.2 |
| 20260508222320 | 63 | 61 | 19.0 | 28.0 | 0.05 | 0.05 | 0.00 | 97 | 915.1 |
| 20260508221822 | 63 | 75 | 21.0 | 28.0 | 0.05 | 0.05 | 0.00 | 97 | 915.1 |
| 20260508221820 | 63 | 76 | 21.0 | 28.0 | 0.05 | 0.05 | 0.00 | 97 | 915.0 |
| 20260508221320 | 63 | 45 | 21.0 | 27.0 | 0.03 | 0.03 | 0.00 | 97 | 914.9 |
| 20260508221222 | 63 | 71 | 19.0 | 27.0 | 0.03 | 0.03 | 0.00 | 97 | 914.9 |
| 20260508220820 | 63 | 74 | 21.0 | 27.0 | 0.03 | 0.03 | 0.00 | 97 | 914.8 |
| 20260508220622 | 63 | 76 | 21.0 | 28.0 | 0.03 | 0.03 | 0.00 | 97 | 914.8 |
| 20260508220320 | 63 | 71 | 22.0 | 28.0 | 0.02 | 0.02 | 0.00 | 97 | 915.0 |
| 20260508220022 | 63 | 70 | 20.0 | 28.0 | 0.02 | 0.02 | 0.00 | 97 | 914.9 |
| 20260508215820 | 63 | 76 | 21.0 | 28.0 | 0.02 | 0.02 | 0.00 | 97 | 914.7 |
| 20260508215422 | 63 | 71 | 21.0 | 29.0 | 0.02 | 0.02 | 0.00 | 97 | 914.8 |
| 20260508215320 | 63 | 79 | 21.0 | 29.0 | 0.02 | 0.02 | 0.00 | 97 | 914.6 |
| 20260508214822 | 63 | 67 | 24.0 | 29.0 | 0.02 | 0.02 | 0.00 | 97 | 914.6 |
| 20260508214820 | 63 | 71 | 24.0 | 29.0 | 0.02 | 0.02 | 0.00 | 97 | 914.6 |
| 20260508214320 | 63 | 62 | 22.0 | 29.0 | 0.01 | 0.01 | 0.00 | 97 | 914.4 |
| 20260508214222 | 63 | 71 | 21.0 | 28.0 | 0.01 | 0.01 | 0.00 | 97 | 914.2 |
| 20260508213820 | 63 | 71 | 22.0 | 28.0 | 0.01 | 0.01 | 0.00 | 97 | 914.6 |
| 20260508213622 | 63 | 65 | 21.0 | 28.0 | 0.01 | 0.01 | 0.00 | 97 | 914.7 |
| 20260508213320 | 63 | 64 | 22.0 | 27.0 | 0.01 | 0.01 | 0.00 | 97 | 914.5 |
| 20260508213022 | 63 | 59 | 22.0 | 28.0 | 0.01 | 0.01 | 0.00 | 97 | 914.4 |
| 20260508212821 | 63 | 77 | 24.0 | 28.0 | 0.01 | 0.01 | 0.00 | 97 | 914.4 |
| 20260508212421 | 63 | 84 | 21.0 | 28.0 | 0.00 | 0.00 | 0.00 | 97 | 914.5 |
| 20260508212320 | 63 | 78 | 23.0 | 28.0 | 0.00 | 0.00 | 0.00 | 97 | 914.5 |
| 20260508211823 | 63 | 70 | 0.0 | 0.0 | 0.00 | 0.00 | 0.00 | 97 | 914.5 |
| 20260508211821 | 63 | 56 | 0.0 | 0.0 | 0.00 | 0.00 | 0.00 | 97 | 914.4 |
| 20260508211222 | 64 | 63 | 19.0 | 28.0 | 0.01 | 0.01 | 0.00 | 97 | 914.6 |
| 20260508210820 | 64 | 66 | 21.0 | 29.0 | 0.01 | 0.01 | 0.00 | 97 | 914.4 |
| 20260508210621 | 64 | 66 | 22.0 | 29.0 | 0.01 | 0.01 | 0.00 | 97 | 914.4 |
| 20260508210320 | 64 | 71 | 22.0 | 29.0 | 0.01 | 0.01 | 0.00 | 97 | 914.2 |
| 20260508210022 | 64 | 79 | 23.0 | 29.0 | 0.01 | 0.01 | 0.00 | 97 | 914.1 |
| 20260508205820 | 64 | 74 | 20.0 | 29.0 | 0.01 | 0.01 | 0.00 | 97 | 914.1 |
| 20260508205421 | 64 | 81 | 23.0 | 29.0 | 0.01 | 0.01 | 0.00 | 97 | 913.8 |
| 20260508205320 | 64 | 84 | 22.0 | 29.0 | 0.01 | 0.01 | 0.00 | 97 | 913.9 |
| 20260508204822 | 64 | 97 | 22.0 | 28.0 | 0.01 | 0.01 | 0.00 | 97 | 914.1 |
| 20260508204820 | 64 | 42 | 22.0 | 28.0 | 0.01 | 0.01 | 0.00 | 97 | 914.0 |
| 20260508204320 | 64 | 63 | 20.0 | 29.0 | 0.00 | 0.00 | 0.00 | 97 | 914.1 |
| 20260508204221 | 64 | 68 | 19.0 | 29.0 | 0.00 | 0.00 | 0.00 | 97 | 914.2 |
| 20260508203820 | 64 | 65 | 21.0 | 29.0 | 0.00 | 0.00 | 0.00 | 97 | 914.0 |
| 20260508203621 | 64 | 63 | 21.0 | 29.0 | 0.00 | 0.00 | 0.00 | 97 | 914.0 |
| 20260508203320 | 64 | 83 | 24.0 | 29.0 | 0.07 | 0.07 | 0.00 | 97 | 913.9 |
| 20260508203021 | 64 | 80 | 24.0 | 29.0 | 0.07 | 0.07 | 0.00 | 97 | 913.6 |
| 20260508202820 | 64 | 89 | 23.0 | 28.0 | 0.07 | 0.07 | 0.00 | 97 | 913.6 |
| 20260508202421 | 64 | 70 | 24.0 | 32.0 | 0.06 | 0.06 | 0.00 | 97 | 913.8 |
| 20260508202320 | 64 | 73 | 24.0 | 32.0 | 0.06 | 0.06 | 0.00 | 97 | 913.8 |
| 20260508201821 | 64 | 73 | 26.0 | 32.0 | 0.06 | 0.06 | 0.00 | 97 | 913.7 |
| 20260508201320 | 64 | 74 | 26.0 | 31.0 | 0.06 | 0.06 | 0.00 | 97 | 913.7 |
| 20260508201221 | 64 | 72 | 26.0 | 31.0 | 0.05 | 0.05 | 0.00 | 97 | 913.5 |
| 20260508200820 | 64 | 73 | 24.0 | 30.0 | 0.05 | 0.05 | 0.00 | 97 | 913.6 |
| 20260508200621 | 64 | 64 | 23.0 | 29.0 | 0.05 | 0.05 | 0.00 | 97 | 914.0 |
| 20260508200320 | 64 | 80 | 22.0 | 29.0 | 0.05 | 0.05 | 0.00 | 98 | 913.8 |
| 20260508195819 | 64 | 68 | 23.0 | 29.0 | 0.03 | 0.03 | 0.00 | 98 | 913.7 |
| 20260508195421 | 64 | 71 | 23.0 | 29.0 | 0.03 | 0.03 | 0.00 | 98 | 913.8 |
| 20260508195319 | 64 | 69 | 24.0 | 30.0 | 0.03 | 0.03 | 0.00 | 98 | 913.9 |